This is the latest recevied weather packets stored in our database for station/object NI4CE-11. If no packets are shown the sender has not sent any weather packets the latest 10 day(s).
| Time | Temp. | Humidity | Pressure | Rain* | Wind** | Luminosity | Snow |
|---|---|---|---|---|---|---|---|
| 1777836343 | 25° C | 100% | 1016.6 hPa | 0 mm | - | - | - |
| 1777836298 | 25° C | 100% | 1016.5 hPa | 0 mm | - | - | - |
| 1777836152 | 25° C | 100% | 1016.6 hPa | 0 mm | - | - | - |
| 1777836109 | 25° C | 100% | 1016.6 hPa | 0 mm | - | - | - |
| 1777835998 | 25° C | 100% | 1016.6 hPa | 0 mm | - | - | - |
| 1777835698 | 23.89° C | 100% | 1016.8 hPa | 0 mm | - | - | - |
| 1777835398 | 25° C | 100% | 1016.9 hPa | 0 mm | - | - | - |
| 1777835376 | 24.44° C | 100% | 1016.9 hPa | 0 mm | - | - | - |
| 1777835098 | 24.44° C | 100% | 1016.9 hPa | 0 mm | - | - | - |
| 1777834798 | 23.89° C | 100% | 1017.1 hPa | 0 mm | - | - | - |
| 1777834738 | 25° C | 100% | 1017.1 hPa | 0 mm | - | - | - |
| 1777834498 | 25° C | 100% | 1017.1 hPa | 0 mm | - | - | - |
| 1777834293 | 23.89° C | 100% | 1017.2 hPa | 0 mm | - | - | - |
| 1777834198 | 23.89° C | 100% | 1017.2 hPa | 0 mm | - | - | - |
| 1777833898 | 25.56° C | 100% | 1017.2 hPa | 0 mm | - | - | - |
| 1777833871 | 23.89° C | 100% | 1017.3 hPa | 0 mm | - | - | - |
| 1777833598 | 23.89° C | 100% | 1017.3 hPa | 0 mm | - | - | - |
| 1777833298 | 24.44° C | 100% | 1017.4 hPa | 0 mm | - | - | - |
| 1777833197 | 23.89° C | 100% | 1017.5 hPa | 0 mm | - | - | - |
| 1777832998 | 23.89° C | 100% | 1017.5 hPa | 0 mm | - | - | - |
| 1777832698 | 23.89° C | 100% | 1017.6 hPa | 0 mm | - | - | - |
| 1777832456 | 23.89° C | 100% | 1017.5 hPa | 0 mm | - | - | - |
| 1777832398 | 23.89° C | 100% | 1017.5 hPa | 0 mm | - | - | - |
| 1777832098 | 23.89° C | 100% | 1017.5 hPa | 0 mm | - | - | - |
| 1777831798 | 24.44° C | 100% | 1017.6 hPa | 0 mm | - | - | - |
* Rain latest hour (hover to see other rain measurements)
** Current wind speed in m/s (hover to see current wind gust speed)